Date,TemperatureHighF,TemperatureAvgF,TemperatureLowF,DewpointHighF,DewpointAvgF,DewpointLowF,HumidityHigh,HumidityAvg,HumidityLow,PressureMaxIn,PressureMinIn,WindSpeedMaxMPH,WindSpeedAvgMPH,GustSpeedMaxMPH,PrecipitationSumIn
2013-1-1,38.1,32.3,25.7,37.3,30.9,23.4,97,95,91,30.30,30.06,1,0,4,0.02
2013-1-2,37.0,28.0,23.4,27.0,23.4,20.8,91,83,61,30.32,30.23,2,0,5,0.00
2013-1-3,42.2,29.7,20.7,31.6,24.6,17.7,92,82,58,30.49,30.31,2,0,5,0.00
2013-1-4,49.4,33.4,22.2,31.3,25.5,19.5,93,75,41,30.51,30.37,2,0,6,0.01
2013-1-5,43.8,35.7,25.9,35.4,30.5,22.8,91,82,71,30.37,30.20,0,0,1,0.00
2013-1-6,46.5,32.8,23.5,31.5,24.8,20.4,95,75,41,30.41,30.27,0,0,1,0.00
2013-1-7,52.7,34.9,21.2,31.7,25.4,18.0,91,71,40,30.40,30.16,3,0,6,0.00
2013-1-8,58.2,41.5,27.0,46.6,35.7,23.9,96,81,55,30.23,30.07,3,0,11,0.00
2013-1-9,54.4,49.9,45.1,48.2,44.4,39.3,98,83,62,30.36,30.21,1,0,7,0.00
2013-1-10,51.9,49.5,47.8,43.5,42.3,39.7,85,76,63,30.22,30.11,1,0,3,0.00
2013-1-19,64.3,50.1,35.4,39.9,36.6,31.9,87,63,40,30.21,30.08,3,1,6,0.00
2013-1-21,38.2,29.5,24.5,19.7,18.2,17.1,74,63,46,30.38,30.33,0,0,0,0.00
2013-1-22,24.3,23.2,22.1,17.4,16.9,16.1,78,76,74,30.37,30.34,0,0,0,0.00
2013-1-29,67.6,55.7,47.0,63.7,54.0,45.6,97,94,80,29.58,29.43,2,0,6,0.11
2013-1-30,47.2,34.3,24.9,46.1,30.3,21.7,96,85,75,30.09,29.49,2,0,7,0.01
2013-1-31,46.6,29.6,20.4,32.2,22.7,11.5,94,77,55,30.49,30.06,2,0,5,0.00
2013-2-1,47.3,28.4,15.0,22.1,15.3,9.2,82,61,35,30.51,30.22,1,0,4,0.00
2013-2-2,53.5,37.1,24.7,34.2,28.1,20.4,89,72,45,30.30,30.21,1,0,4,0.00
2013-2-3,55.3,39.5,27.2,31.3,27.9,23.8,95,68,33,30.32,30.00,0,0,1,0.00
2013-2-4,60.6,47.7,35.3,47.7,39.1,30.5,90,73,49,30.00,29.83,1,0,1,0.00
2013-2-5,63.9,43.7,29.1,47.7,34.1,26.8,97,74,35,30.10,29.94,1,0,4,0.00
2013-2-6,65.9,47.4,31.2,44.7,36.8,28.5,95,70,44,30.14,29.96,0,0,0,0.00
2013-2-7,56.4,51.1,43.9,53.2,47.9,39.4,96,89,77,30.11,29.86,0,0,0,0.01
2013-2-8,53.8,42.1,34.6,39.1,33.5,30.6,87,73,45,30.32,30.11,0,0,1,0.00
2013-2-9,49.8,41.2,33.4,42.6,35.0,30.5,93,80,48,30.24,29.85,0,0,0,0.00
2013-2-10,61.3,52.9,41.8,53.2,39.8,28.2,96,66,33,30.05,29.65,7,1,14,0.00
2013-2-11,53.3,39.3,27.7,30.7,27.5,24.6,91,65,34,30.21,30.05,0,0,0,0.00
2013-2-12,46.5,36.7,27.5,37.4,30.4,24.4,94,79,54,30.18,29.94,0,0,0,0.00
2013-2-13,51.2,39.1,32.6,39.0,33.6,30.0,96,82,51,30.05,29.95,3,0,9,0.01
2013-2-14,32.6,31.5,30.6,30.0,29.3,28.7,93,92,90,30.00,29.98,0,0,0,0.00